Location: Kalberh�ni
(46.4610°N, 7.2453°E)
Time: 04:47:05
(UTC+00:00)

Cosmos 2333 Rocket - Pass Details

Date: 28 October 2021
Orbit: 837 x 865 km, 70.8° (Epoch: 05 December)

Event Time Altitude Azimuth Distance (km) Brightness Sun altitude
Rises 19:15:36 0° 232° (SW) 3,393 5.8 -30.3°
Reaches altitude 10° 19:18:13 10° 240° (WSW) 2,465 5.1 -30.8°
Maximum altitude 19:23:26 37° 307° (NW) 1,306 3.5 -31.6°
Enters shadow 19:26:43 20° 2° (N) 1,863 4.1 -32.2°
